Regional Weather Roundup
Issued by NWS

Home | Current Version | Previous Version | Graphics & Text | Print | Product List | Glossary Off
Versions: 1 2 3 4 5 6 7 8 9 10 11 12 13 14 15 16 17 18 19 20 21 22 23 24 25 26 27 28 29 30 31 32 33 34 35 36 37 38 39 40 41 42 43 44 45 46 47 48 49 50

000
ASUS45 KBOU 212207
RWRCO

WEATHER ROUNDUP FOR COLORADO
NATIONAL WEATHER SERVICE DENVER/BOULDER CO
400 PM MDT TUE OCT 21 2014

NOTE: "FAIR" INDICATES FEW OR NO CLOUDS BELOW 12000 FEET WITH NO
SIGNIFICANT WEATHER AND/OR OBSTRUCTIONS TO VISIBILITY.

COZ001>005-013-030-031-212300-
...NORTHWEST COLORADO...

CITY           SKY/WX    TMP DP  RH WIND       PRES   REMARKS
CRAIG            N/A     68  40  35 MISG      29.99S
HAYDEN         CLOUDY    63  36  36 W12G21    30.01S
MEEKER         CLOUDY    65  39  38 S10       30.00F
MOUNT WERNER   NOT AVBL
STEAMBOAT SPGS CLOUDY    60  38  44 CALM      30.02S
WALDEN         CLOUDY    50  37  62 SE12      30.10F
$$

COZ006>008-011-212300-
...WEST CENTRAL VALLEYS...

CITY           SKY/WX    TMP DP  RH WIND       PRES   REMARKS
GRAND JUNCTION CLOUDY    63  43  48 NW10      29.96R
MONTROSE       CLOUDY    61  45  55 SE15      30.05F
EAGLE          PTSUNNY   61  43  51 W8        30.07F
RIFLE          CLOUDY    64  43  46 CALM      29.99F
DELTA          CLOUDY    68  42  39 SE12      30.00F
NUCLA          CLOUDY    64  39  39 SW8       30.06F
$$

COZ017>023-064>068-212300-
...SOUTHWEST COLORADO...

CITY           SKY/WX    TMP DP  RH WIND       PRES   REMARKS
DURANGO        CLOUDY    59  42  53 S5        30.10F
CORTEZ         SUNNY     68  40  35 SW8       30.05F
PAGOSA SPRINGS CLOUDY    57  38  49 CALM      30.16F
TELLURIDE      CLOUDY    51  39  63 CALM      30.20F
WOLF CREEK PAS CLOUDY    36  32  87 SW10G18     N/A
$$

COZ009-010-012-014-032>034-037-058>063-212300-
...CENTRAL COLORADO...

CITY           SKY/WX    TMP DP  RH WIND       PRES   REMARKS
ASPEN          LGT RAIN  54  39  57 N5        30.11R
BUENA VISTA    PTSUNNY   60  35  39 E12       30.11F
COPPER MTN     CLOUDY    45  30  57 W16       30.31S
BERTHOUD PASS  CLOUDY    32  30  93 N3        30.35S
COTTONWOOD PAS PTSUNNY   52  34  50 S16       30.20F
GUNNISON       MOSUNNY   61  34  36 S9        30.12S
KREMMLING      PTSUNNY   59  37  44 E3          N/A
LEADVILLE      PTSUNNY   50  27  40 S7        30.17F
MONARCH PASS   PTSUNNY   37  34  87 SW14      30.41F
SALIDA         CLOUDY    60  44  54 N3        30.16F
SUNLIGHT       CLOUDY    45  39  81 CALM      30.26F
WILKERSON PASS NOT AVBL
$$

COZ069>075-212300-
...SAN LUIS VALLEY/SANGRE DE CRISTO MOUNTAINS...

CITY           SKY/WX    TMP DP  RH WIND       PRES   REMARKS
ALAMOSA        CLOUDY    59  37  44 SW9       30.12F
LA VETA PASS   PTSUNNY   46  32  57 S8G20     30.25S
SAGUACHE       PTSUNNY   57  36  44 CALM      30.13F
$$

COZ035-036-038>040-212300-
...NORTHERN COLORADO FRONT RANGE...

CITY           SKY/WX    TMP DP  RH WIND       PRES   REMARKS
DENVER INTL AP PTSUNNY   77  30  17 VRB6      29.91F
DMNS CITY PARK   N/A     74  30  19 NE1       29.91S
AURORA         PTSUNNY   72  35  25 NW2       29.93F
FRONT RANGE AP PTSUNNY   77  32  19 SW6       29.92F
ERIE MUNI ARPT PTSUNNY   74  32  21 CALM      29.90F
BOULDER MUN AP PTSUNNY   70  37  30 W3        29.91F
CENTENNIAL     LGT RAIN  65  45  48 NW9       29.95R
BROOMFIELD     PTSUNNY   73  34  23 CALM      29.94S
FORT COLLINS   MOSUNNY   77  39  25 SE6       29.90S
LONGMONT       PTSUNNY   76  36  23 S5        29.92S
$$

COZ041-046-047-076>085-087-088-212300-
...PIKES PEAK/PALMER DIVIDE AND SOUTHERN FOOTHILLS...

CITY           SKY/WX    TMP DP  RH WIND       PRES   REMARKS
COLO. SPRINGS  MOSUNNY   70  34  26 S13       30.01F
A. F. ACADEMY  PTSUNNY   65  35  32 S10       30.02F
ELLICOTT       MOSUNNY   70  30  22 S15G21    29.99F
FALCON         MOSUNNY   68  32  26 S13       30.06S
FORT CARSON    PTSUNNY   70  36  28 SE13      29.98S
LIMON          SUNNY     70  37  29 S20G25    29.96F
MONUMENT HILL  MOSUNNY   63  34  34 S17       30.03S
TRINIDAD       MOSUNNY   71  43  36 S23       29.99F
$$

COZ042>045-048>051-090-091-212300-
...NORTHEAST COLORADO...

CITY           SKY/WX    TMP DP  RH WIND       PRES   REMARKS
GREELEY ARPT   SUNNY     77  36  22 SE7       29.89S
AKRON          SUNNY     77  33  20 S18G29    29.91S
BURLINGTON     SUNNY     78  38  23 S22G29    29.95S
WRAY           SUNNY     82  40  22 S17G24    29.89S
STERLING       SUNNY     81  45  28 SW5       29.85F
HOLYOKE        SUNNY     81  41  24 S15G24    29.88S
FORT MORGAN    SUNNY     79  37  22 E7        29.88F
$$

COZ086-089-092>099-212300-
...SOUTHEAST COLORADO...

CITY           SKY/WX    TMP DP  RH WIND       PRES   REMARKS
PUEBLO         MOSUNNY   77  36  22 E9        29.90F
LA JUNTA       SUNNY     79  39  23 S15       29.92S
LAMAR          SUNNY     81  40  23 SW18G28   29.91F
SPRINGFIELD      N/A     73  43  33 S22G30    30.00F
$$



USA.gov is the U.S. government's official web portal to all federal, state and local government web resources and services.